Wind_Speed
20 20 20 20 20 20 20 20 20 20 20 20 19 19 19 18 17 16 14 14 13 12 11 10 10 10 11 12 13 15 16 17 18 18 19 19 17 14 13 14 13 12 10 10 14 17 18 18 19 19 18 17 16 16 16 17 17 16 15 15 14 14 13 13 13 12 11 9 10 10 9 9 8 8 7 6 5 5 5 5 5 5 6 7 7 8 7 3
20 20 20 20 20 20 20 20 20 20 20 20 20 20 20 20 19 18 17 16 16 15 14 12 11 11 12 13 14 15 16 17 16 17 20 22 19 15 15 15 16 17 14 13 15 19 21 22 22 22 21 20 18 17 17 17 17 16 15 14 14 13 12 13 13 12 11 10 10 10 9 9 8 6 5 4 4 5 5 5 5 5 5 6 6 7 9 6
19 19 19 19 19 20 20 20 20 20 20 20 20 20 20 20 20 20 19 18 18 18 17 16 14 12 12 13 15 16 16 17 17 17 20 23 22 19 18 18 19 19 19 19 19 21 23 25 26 25 24 23 20 18 18 17 17 16 15 14 14 12 12 14 14 13 11 10 10 10 9 8 7 7 6 5 5 5 5 4 4 4 3 4 5 6 9 9
17 18 18 18 18 18 19 19 19 20 20 20 20 20 20 20 21 21 20 19 19 19 19 19 18 16 14 14 15 16 17 17 17 18 20 22 23 23 22 23 22 22 21 19 19 20 20 22 23 24 24 23 21 20 18 18 18 18 17 15 14 13 12 14 14 13 12 11 11 10 9 7 7 7 7 6 6 5 5 4 3 3 2 2 3 5 8 11
15 16 16 16 16 16 17 17 18 18 19 19 19 20 20 20 21 21 21 20 20 19 20 20 20 19 18 16 16 17 17 18 18 19 20 21 22 25 26 27 24 23 22 20 19 19 18 19 21 22 22 21 20 20 19 19 19 19 18 16 15 14 14 14 15 14 12 12 13 11 8 7 8 8 7 7 7 7 6 5 4 3 4 3 4 4 6 10
14 15 15 15 15 15 15 16 16 17 17 18 19 19 19 20 20 21 21 21 20 20 20 20 21 21 21 20 19 18 19 18 19 19 20 21 22 24 28 29 27 24 23 21 19 19 19 19 19 20 21 21 21 21 22 22 21 21 19 18 17 16 16 15 15 15 14 13 13 11 9 8 8 9 8 8 8 8 8 7 5 5 4 5 6 6 6 9
14 15 15 15 16 15 15 15 16 16 16 17 18 18 18 19 20 20 21 21 21 20 20 20 21 22 22 23 22 22 21 19 20 20 19 20 22 24 27 29 28 27 25 23 21 21 20 19 19 19 21 22 23 24 24 23 23 23 21 20 18 18 18 17 15 15 14 13 13 12 11 9 9 10 9 9 9 8 8 7 6 5 4 5 7 8 6 7
15 16 16 16 16 17 17 17 17 17 17 18 18 18 18 18 19 20 20 20 20 20 21 21 21 22 23 24 24 25 24 21 21 21 19 20 22 24 26 27 27 28 28 26 25 24 24 23 22 23 23 24 26 27 26 25 24 24 23 22 20 20 19 18 16 15 14 13 14 13 11 9 8 10 10 9 9 9 9 8 6 5 6 6 7 9 9 7
18 18 18 18 18 18 18 18 18 18 18 19 19 19 19 19 19 19 20 20 20 20 21 21 21 22 23 24 25 26 26 24 23 22 20 20 21 24 26 26 26 27 29 30 29 26 25 26 27 27 26 27 27 28 29 28 27 27 27 25 23 21 20 19 18 16 15 15 15 14 11 9 8 9 11 9 9 10 9 8 7 7 7 7 7 9 10 10
20 20 20 20 20 20 20 20 20 20 20 20 20 20 20 20 20 20 20 20 20 21 21 21 22 22 23 24 25 27 27 26 26 24 22 21 21 24 26 26 27 27 28 31 31 29 28 31 31 29 29 29 29 29 30 30 29 30 29 26 24 21 20 20 18 17 16 17 16 14 12 10 7 8 11 11 9 9 9 9 9 8 8 7 8 8 10 11
20 21 21 22 22 22 22 22 22 22 21 21 22 21 21 22 22 22 22 22 22 22 21 22 22 23 24 24 25 26 27 27 27 27 26 24 23 24 26 27 27 27 29 30 32 34 35 36 33 31 31 30 30 30 30 30 30 31 30 28 26 23 21 22 20 18 18 19 18 16 14 10 7 8 11 11 10 10 9 10 10 9 8 8 8 9 11 12
22 22 23 23 23 23 24 24 24 24 23 23 23 23 23 23 23 23 23 23 24 24 23 23 23 24 25 25 25 26 27 28 27 28 28 27 25 25 26 27 27 28 29 30 33 37 39 38 35 34 32 30 30 31 30 30 30 32 30 28 27 24 22 23 23 21 20 21 19 18 15 12 10 10 10 11 11 10 10 11 10 8 8 8 9 9 10 12
23 23 24 24 25 26 26 26 26 27 26 26 26 26 26 25 25 24 24 25 25 25 25 26 26 26 26 27 26 26 27 27 28 29 29 29 28 27 28 29 28 28 29 31 34 37 40 39 38 37 33 32 34 33 30 30 31 31 29 27 27 26 24 24 24 22 22 22 21 19 17 16 16 13 11 11 12 12 12 12 10 9 9 9 9 9 10 11
24 25 25 26 27 27 28 29 29 30 30 30 30 30 30 29 28 27 27 27 27 27 27 27 28 28 29 29 28 28 28 28 28 29 30 30 30 30 30 30 30 29 30 33 34 36 38 40 41 39 35 36 36 31 30 31 31 31 29 29 28 27 26 26 25 24 23 23 22 21 18 18 18 14 13 13 13 14 13 13 11 10 10 9 9 10 10 11
28 28 28 29 30 30 31 31 32 33 33 34 34 35 34 34 32 31 31 30 30 30 30 30 30 30 31 31 31 30 30 30 30 29 30 31 32 32 32 32 32 31 31 33 35 37 38 40 41 39 38 38 35 33 33 32 31 31 30 28 28 28 27 27 26 25 25 25 23 21 20 20 19 16 17 16 16 15 14 13 11 10 10 9 9 10 10 10
30 30 31 32 32 33 34 35 36 36 36 36 37 37 38 37 36 36 36 35 34 33 32 33 33 33 33 33 33 33 32 32 32 31 31 31 32 33 34 35 35 34 33 33 35 37 38 40 40 40 41 40 37 36 36 35 33 32 29 27 27 28 27 26 27 26 26 26 23 20 21 22 20 19 19 17 17 17 15 15 13 12 11 10 9 10 10 10
31 31 32 33 34 35 36 37 38 39 39 39 38 39 39 39 39 39 39 39 39 38 36 36 35 35 35 35 35 36 35 34 34 34 32 32 33 34 35 36 37 37 36 35 36 38 39 39 40 41 42 41 40 40 40 38 34 30 29 27 27 28 28 27 28 28 28 27 24 21 22 21 18 19 19 17 17 17 17 16 15 14 13 11 10 10 10 11
32 33 33 34 35 36 36 36 37 38 39 39 39 40 40 41 41 41 42 42 42 42 40 39 37 37 37 37 37 38 38 37 36 36 35 34 34 34 36 38 39 40 39 38 38 37 38 39 40 41 42 43 43 42 40 35 32 32 31 28 26 27 30 30 28 29 29 27 25 23 23 22 19 20 20 18 17 18 19 19 17 17 16 14 12 12 11 11
34 35 35 36 36 36 36 36 36 37 38 39 40 41 41 42 42 42 42 43 43 43 42 41 40 39 39 39 39 39 40 40 39 38 37 37 36 35 36 38 40 42 42 41 40 38 39 40 41 41 40 39 40 39 37 34 36 37 33 30 27 26 29 32 30 29 29 28 25 23 25 25 23 20 18 17 18 19 20 20 18 17 17 15 13 13 12 12
36 36 35 35 35 35 35 35 36 37 37 38 39 40 41 42 43 43 43 43 43 42 42 41 40 40 40 40 40 41 42 42 41 40 39 39 39 38 37 38 41 43 44 44 42 41 40 40 40 38 35 34 36 37 37 39 41 38 34 33 31 28 30 32 31 30 29 28 26 25 27 28 25 21 19 19 20 21 21 20 18 17 17 17 15 14 13 12
35 34 34 33 33 33 34 35 35 36 35 35 36 37 38 39 41 42 43 42 43 42 41 41 40 39 40 41 41 42 43 44 43 43 42 41 41 41 39 39 41 43 44 45 45 43 42 41 36 33 34 36 37 37 39 43 42 38 37 36 34 32 32 33 35 32 30 29 27 27 29 29 27 25 24 23 23 22 22 21 20 19 19 19 18 16 14 12
34 33 33 33 34 34 34 34 34 34 33 32 32 32 33 34 35 37 39 39 40 40 40 40 40 39 40 41 42 43 44 45 45 45 44 43 43 44 42 41 41 42 44 47 48 46 44 40 33 33 37 38 38 38 39 42 41 39 40 39 37 36 35 36 37 32 30 31 29 29 30 30 30 29 29 28 26 25 24 24 23 22 22 21 20 18 16 14
33 34 34 34 34 34 33 33 32 31 30 29 29 28 29 29 30 31 33 34 35 36 37 38 39 39 39 40 41 42 44 45 46 46 45 44 45 46 44 43 43 43 45 48 48 46 45 40 33 35 39 39 39 38 39 40 41 42 43 43 41 39 38 38 37 34 33 33 32 32 32 33 33 32 33 32 30 28 26 27 27 26 25 23 22 20 18 18
33 34 34 34 33 32 30 30 29 29 28 28 27 26 27 27 26 27 28 30 31 32 33 34 35 37 37 38 39 41 43 45 45 46 46 46 47 46 46 45 45 46 46 47 47 46 46 41 38 41 40 39 40 40 40 40 41 43 45 45 43 42 40 38 39 38 36 36 34 33 34 35 35 35 34 33 32 31 29 29 28 27 27 25 23 21 19 19
32 32 32 32 31 29 28 27 27 26 26 26 25 25 25 25 24 25 26 28 28 29 29 31 32 33 34 35 36 38 40 43 44 45 46 46 47 47 48 49 48 48 48 47 46 47 48 44 44 45 40 37 41 42 42 40 39 41 44 44 44 44 41 40 42 40 36 36 34 34 36 36 37 38 36 35 35 34 32 31 30 29 29 27 24 22 20 19
30 31 30 30 30 28 26 25 24 24 24 25 25 24 24 24 24 25 26 28 28 27 28 29 30 31 32 32 32 34 37 39 41 43 44 46 47 48 49 49 50 50 50 49 48 49 49 46 48 48 42 39 43 45 44 42 41 41 42 43 45 46 44 41 41 39 37 36 36 40 41 36 37 39 38 38 38 36 34 33 32 32 31 28 26 24 22 21
29 29 29 29 28 27 24 23 23 23 24 25 25 24 24 24 25 25 26 28 29 26 25 27 27 28 29 29 29 30 32 35 37 39 42 44 45 46 48 50 51 52 53 51 51 50 48 47 49 50 46 45 46 46 45 44 43 41 41 43 45 46 45 42 41 41 40 38 42 46 41 36 39 40 39 41 40 39 37 36 35 35 33 30 28 27 24 23
28 28 28 28 27 25 23 22 22 23 25 26 25 24 25 25 26 27 27 29 28 25 24 26 25 26 27 27 27 27 28 31 33 35 38 41 43 45 47 51 52 53 54 53 52 52 49 47 49 50 49 48 47 45 43 44 44 41 42 44 42 43 44 44 45 45 43 44 49 47 40 39 41 40 41 44 43 42 40 37 37 36 34 31 30 28 27 25
28 27 26 26 25 24 22 21 23 24 25 24 24 25 27 28 29 29 29 29 28 26 25 25 25 26 27 27 28 28 28 28 29 30 33 37 40 43 46 50 52 54 56 54 54 55 51 48 50 52 51 51 49 47 45 46 45 42 45 45 40 40 43 46 49 49 48 51 52 47 43 43 42 40 43 46 44 43 41 38 37 37 35 33 31 30 29 27
28 27 25 23 23 22 21 21 23 24 24 24 26 27 28 29 29 30 31 29 27 26 26 26 25 25 26 27 28 28 27 27 27 26 28 32 36 40 43 47 51 53 55 56 56 57 54 51 53 54 53 53 52 49 47 48 45 44 48 47 40 41 44 47 50 50 53 56 54 49 46 46 44 43 44 47 46 44 42 39 38 38 37 34 33 32 30 28
28 25 22 21 21 21 21 21 22 23 24 25 27 26 26 26 26 28 28 27 26 26 26 25 24 24 26 27 28 28 27 27 26 24 24 27 31 35 40 44 48 52 55 57 57 58 57 54 55 55 54 54 54 52 50 49 46 47 51 49 43 43 45 48 51 53 57 60 55 50 48 50 47 44 44 47 46 44 42 40 39 39 38 36 34 33 31 30
26 22 20 20 21 21 22 23 23 23 25 25 24 23 22 23 23 23 24 24 25 25 23 23 24 24 26 27 28 29 29 29 28 26 24 24 26 30 35 40 45 49 53 55 56 58 58 56 55 56 55 55 55 55 53 50 48 50 53 51 47 46 48 50 52 55 59 59 56 51 49 52 47 42 44 48 47 45 43 42 42 41 40 38 36 34 33 33
23 20 20 19 21 22 23 24 25 24 24 23 21 21 20 21 21 21 21 22 23 23 23 24 24 24 26 27 28 29 31 31 30 29 27 25 25 26 30 35 41 45 49 53 56 57 57 57 58 59 58 57 57 57 55 52 51 52 54 54 52 51 52 52 53 55 58 56 56 53 51 53 48 42 47 51 48 46 45 45 45 43 42 41 38 37 36 35
22 19 19 19 21 24 23 23 24 23 22 20 20 20 20 21 21 21 21 21 21 22 22 24 24 25 26 28 29 30 32 33 32 32 31 29 28 27 27 31 36 41 45 50 53 55 56 57 59 60 59 58 57 57 56 54 53 53 54 54 55 54 53 52 52 54 55 55 56 55 54 54 49 43 47 51 48 47 47 46 45 45 44 42 40 39 39 37
20 19 20 19 21 23 23 22 22 21 20 19 19 20 21 22 22 23 23 22 22 22 22 23 24 25 26 28 30 31 33 34 34 34 34 33 32 30 28 28 31 36 41 45 49 53 56 57 59 62 61 60 58 58 57 57 56 54 54 55 57 56 53 52 52 53 52 53 55 58 58 56 52 46 44 45 46 47 47 47 47 46 45 43 42 41 40 38
20 19 20 20 22 23 22 22 20 19 18 18 19 20 21 23 23 23 23 23 23 23 23 24 24 25 27 27 29 31 33 35 36 36 37 36 35 33 31 29 29 32 36 42 47 51 53 55 61 64 63 62 61 59 59 59 57 55 56 58 57 56 54 52 52 53 53 53 56 60 59 57 55 50 42 38 42 46 47 47 48 47 45 45 44 42 40 39
20 20 21 22 23 23 23 23 20 19 18 18 19 20 21 22 23 23 23 22 23 23 24 26 25 25 28 29 30 31 32 35 37 37 39 39 37 36 34 32 31 31 33 37 42 47 49 53 61 63 62 64 64 61 61 61 59 55 54 56 57 55 55 55 53 54 55 55 56 58 59 58 55 52 43 36 39 44 45 45 46 46 46 46 44 41 40 40
21 21 22 23 24 24 25 24 22 20 19 19 19 20 21 22 22 22 21 22 22 23 24 26 26 27 29 31 33 32 32 35 37 38 40 41 40 39 38 36 35 34 33 34 37 42 46 50 57 59 59 63 65 62 61 61 62 58 51 50 56 58 57 58 59 58 59 58 57 57 59 58 55 52 47 38 37 41 43 43 44 44 45 46 44 42 41 40
21 21 22 23 24 25 25 24 22 20 20 20 20 21 21 21 21 20 20 21 21 23 24 26 28 29 31 33 35 36 36 37 39 39 41 44 43 42 41 41 39 37 36 36 35 37 41 46 52 55 57 62 64 64 63 62 62 63 58 53 56 60 59 59 60 59 59 59 58 58 58 58 55 51 47 41 38 39 40 41 42 42 44 46 45 42 42 41
21 21 23 24 25 25 24 23 21 20 20 21 21 21 20 20 19 19 19 20 21 23 25 27 29 32 34 35 38 41 41 41 42 43 44 46 46 45 45 44 43 41 40 39 38 36 38 43 48 50 55 60 62 63 64 61 60 62 64 63 61 59 57 58 60 59 59 60 59 58 57 56 55 51 47 43 39 38 38 39 40 42 44 46 45 44 43 42
22 22 23 24 24 24 23 21 20 20 20 20 20 21 20 20 19 19 19 20 21 23 26 29 31 34 37 38 41 44 44 44 45 45 46 48 49 50 49 47 46 45 44 43 43 42 40 43 45 47 53 57 57 59 63 62 60 59 61 65 64 57 54 58 62 61 60 61 60 60 58 56 55 51 47 44 40 38 38 39 40 42 44 44 45 46 45 42
22 22 22 23 23 23 21 20 20 20 20 20 20 21 20 21 21 21 21 21 23 24 27 31 34 38 41 41 42 44 45 45 45 45 47 48 50 52 51 50 49 49 49 48 48 47 44 43 46 46 51 55 52 56 65 66 64 62 61 64 63 56 53 57 63 62 61 62 61 61 60 58 57 51 44 43 41 39 40 41 41 43 44 44 45 46 44 41
21 21 21 22 23 21 20 19 19 19 20 20 20 20 20 21 21 21 21 22 23 25 29 33 36 40 43 44 44 43 42 42 42 41 43 45 48 51 50 50 50 49 50 52 52 51 46 45 47 46 47 50 49 52 62 66 66 66 66 65 62 57 53 55 61 64 64 62 61 62 61 60 58 49 41 40 41 41 40 41 41 44 45 45 46 47 45 42
21 20 21 22 21 20 19 19 19 19 19 19 19 19 19 19 20 20 21 22 24 27 31 35 38 40 43 43 41 37 35 34 32 31 32 34 39 44 46 47 48 48 50 52 53 52 49 47 49 48 45 45 46 49 57 64 67 66 65 65 65 63 61 62 65 67 67 64 62 63 61 60 59 49 39 37 40 41 40 40 41 44 46 47 48 48 46 44
20 20 20 21 20 19 19 19 19 19 18 18 19 19 18 18 18 19 21 23 25 28 32 35 38 39 38 35 31 28 27 25 25 26 26 26 30 34 36 39 43 46 48 50 51 52 51 50 51 52 48 44 44 48 54 62 65 63 62 65 68 69 67 67 67 67 67 65 65 63 57 56 59 49 38 36 40 40 40 41 42 44 44 46 47 46 45 44
21 20 20 20 19 19 19 18 18 18 18 19 19 18 18 18 19 20 22 24 25 28 31 34 36 34 30 26 23 23 23 21 21 23 24 26 26 27 28 30 35 40 43 46 49 51 53 53 52 53 51 47 45 48 54 59 62 65 68 71 71 70 69 68 68 68 68 65 66 65 57 56 59 49 39 37 40 39 39 40 43 44 45 46 48 48 47 47
21 20 19 19 19 19 18 18 18 18 19 19 19 19 19 20 20 21 23 24 26 28 31 32 31 28 24 21 20 20 20 19 19 20 22 25 26 24 24 25 29 33 36 41 46 50 53 54 54 54 54 50 48 49 53 58 63 70 74 75 73 72 70 70 70 70 70 68 67 66 62 61 58 48 40 40 40 39 40 42 45 47 48 49 50 51 50 50
21 20 19 19 19 19 18 18 18 19 19 20 20 20 22 22 23 23 24 25 27 28 29 28 26 23 20 18 18 17 16 16 16 17 19 23 25 25 23 24 26 27 29 34 40 46 52 55 55 56 56 54 51 51 52 55 62 70 75 74 73 72 71 72 72 71 71 71 68 64 65 64 57 48 44 43 42 41 42 44 47 49 50 52 53 53 53 53
20 19 19 19 19 18 18 18 19 19 20 20 21 22 24 25 25 25 26 27 28 29 28 25 21 19 16 15 15 14 13 13 13 14 15 18 22 24 24 24 25 25 26 28 32 38 46 52 55 58 59 57 54 52 53 55 59 66 72 73 72 72 72 72 73 72 71 71 69 66 67 63 55 49 46 42 40 40 40 43 47 49 51 52 54 56 56 56
19 19 19 19 18 17 17 18 19 20 21 21 22 23 26 28 27 27 27 28 29 29 27 21 18 16 14 13 13 13 12 11 11 12 13 14 17 21 23 24 24 24 25 26 28 32 38 45 51 57 60 60 56 53 54 57 59 63 68 72 72 72 72 72 73 72 71 72 71 69 68 62 53 50 46 42 40 41 40 42 45 48 51 53 54 57 59 58
18 18 18 18 17 17 18 20 20 21 23 24 24 25 27 29 29 28 27 27 29 29 26 20 15 14 13 12 11 12 12 12 11 12 13 12 13 17 20 23 24 24 24 25 26 27 31 36 43 52 59 61 57 54 55 57 58 61 66 70 72 72 71 71 71 71 71 73 72 70 69 62 53 50 47 43 43 43 42 44 46 49 52 53 54 57 59 59
17 17 17 17 17 18 20 21 22 24 25 26 26 27 28 30 31 29 27 27 28 28 26 20 14 12 12 11 11 11 11 12 12 13 13 13 13 14 16 19 22 24 24 24 24 24 26 29 35 43 53 57 56 55 55 56 59 62 65 68 70 71 70 69 69 71 72 72 71 70 68 61 53 50 47 44 44 44 44 45 45 47 51 54 55 56 58 59
Wind_Direction
291 290 289 289 288 287 286 286 285 284 284 284 284 284 283 281 280 279 278 278 278 277 274 268 261 254 250 248 244 238 233 229 224 220 218 218 218 207 192 192 200 209 204 196 207 211 209 208 208 207 201 196 192 186 181 181 182 182 182 179 176 179 180 181 182 181 178 180 188 191 191 194 194 191 188 182 174 174 181 181 182 186 170 168 162 138 134 159
291 290 290 289 288 288 287 287 286 285 284 283 283 282 282 281 279 277 275 274 274 274 274 271 264 257 252 249 246 243 238 234 227 218 218 219 218 208 199 200 201 206 198 188 199 203 205 204 204 206 203 200 196 190 187 186 188 190 192 189 184 186 190 190 188 184 177 179 188 191 197 199 194 190 183 169 163 174 186 183 175 184 183 173 169 150 141 149
292 291 291 290 290 290 289 288 287 286 285 284 283 282 281 281 279 277 275 272 270 270 271 269 266 260 255 252 248 246 242 239 230 220 220 220 217 211 208 211 208 208 204 194 197 203 205 205 202 203 203 200 196 193 193 193 195 197 198 198 192 188 195 194 189 186 179 181 189 192 198 202 198 183 172 166 168 174 176 173 163 168 193 179 174 170 151 149
295 294 294 293 293 292 292 291 290 289 288 286 285 283 281 281 280 278 276 273 270 268 267 266 265 262 257 255 251 248 244 241 235 224 223 221 216 214 214 216 211 210 213 204 201 206 209 211 208 207 207 203 199 196 197 199 201 203 202 201 195 188 198 200 191 188 187 188 190 194 201 210 215 198 184 178 174 170 160 153 148 148 173 191 190 194 172 158
300 299 297 297 296 295 295 294 293 292 291 289 287 285 283 281 280 278 277 275 272 269 267 265 264 262 258 255 252 251 247 243 239 230 226 224 218 216 218 220 214 210 216 213 208 209 210 212 212 211 211 208 205 202 202 203 205 209 206 203 198 189 197 206 202 197 196 195 193 196 205 220 232 221 205 191 179 169 164 157 148 152 162 172 191 200 194 173
303 302 300 299 298 297 296 295 294 293 293 291 289 288 286 284 282 280 278 276 275 272 268 266 263 261 259 256 253 251 249 245 242 235 229 227 222 218 220 223 219 214 217 216 212 212 212 211 210 211 212 210 209 208 208 206 206 211 209 205 200 193 196 204 211 207 199 198 197 199 207 219 234 240 230 206 188 173 168 165 158 162 171 176 182 184 196 190
304 303 301 300 299 298 297 295 294 293 292 291 289 289 288 287 285 283 281 279 277 274 271 267 264 262 259 256 254 252 250 245 243 240 233 230 227 222 223 225 222 219 219 218 215 214 214 211 207 207 208 208 210 212 213 211 210 213 212 208 202 198 199 199 207 210 202 199 201 202 205 211 228 249 245 209 192 183 171 169 167 164 177 185 184 178 181 202
303 301 299 298 297 296 295 294 293 291 290 289 288 287 287 287 286 285 284 282 280 277 274 270 266 263 260 257 255 253 251 247 245 245 238 233 232 229 226 226 224 221 219 218 216 214 212 210 207 205 203 203 207 211 214 215 214 216 216 213 207 202 202 199 200 207 207 202 202 200 198 205 225 255 253 215 197 195 177 171 177 170 176 186 187 181 170 184
299 298 297 296 295 294 293 292 291 290 288 287 286 286 285 284 284 285 285 285 283 281 278 274 270 265 262 259 256 254 252 249 247 246 241 236 235 235 231 226 225 222 219 218 217 215 213 212 210 207 203 202 204 206 211 214 214 217 218 216 213 206 203 202 198 203 209 206 203 196 191 199 222 252 252 232 208 196 182 177 181 173 176 183 184 184 170 173
299 298 297 296 295 294 293 292 291 289 288 287 286 285 284 283 282 282 282 282 282 282 281 278 275 270 264 261 258 256 253 249 246 244 241 237 235 237 235 230 225 222 219 218 217 216 216 215 213 209 207 204 204 204 206 211 213 218 219 217 218 212 206 204 198 200 206 207 202 194 192 195 212 243 251 251 228 200 190 185 183 175 175 181 181 183 173 173
299 298 298 297 296 295 294 293 291 289 288 286 285 284 283 282 281 280 279 278 278 278 278 278 277 273 268 264 260 258 254 250 247 244 241 236 233 236 238 234 228 223 221 218 216 215 217 218 214 211 210 208 208 206 205 207 210 217 218 215 217 214 207 204 199 197 203 206 202 196 196 197 204 231 247 256 239 212 199 192 188 183 181 181 180 183 178 173
299 298 298 297 296 295 294 292 291 289 288 286 285 284 283 282 281 281 280 278 276 274 273 273 273 273 271 267 263 260 256 252 249 245 242 238 233 233 237 237 232 226 223 220 217 217 218 219 216 214 212 210 212 211 209 207 209 216 216 212 214 213 207 203 199 197 202 207 204 200 199 201 204 216 235 246 236 219 205 196 194 195 191 184 180 183 183 179
297 297 296 296 294 294 293 292 290 289 287 286 285 284 283 282 281 281 281 279 277 275 272 270 268 269 269 268 265 262 259 254 250 246 244 240 235 232 235 237 234 229 224 222 220 219 220 219 218 217 212 211 214 214 212 211 212 216 214 209 209 208 205 203 200 197 201 207 206 203 202 208 209 205 217 231 230 222 208 199 199 202 198 188 185 184 183 184
295 295 294 293 292 292 291 290 289 288 286 285 285 284 283 282 281 281 281 280 278 276 273 270 267 264 264 265 264 263 260 257 252 247 244 241 236 232 233 237 236 231 226 224 222 222 222 221 221 219 215 215 215 214 214 214 216 219 215 209 204 204 204 203 202 197 200 206 208 204 203 216 216 206 209 217 220 217 207 204 204 203 199 193 192 189 185 185
292 292 292 291 291 290 290 289 289 287 285 284 284 284 283 282 280 281 281 280 280 278 275 271 267 264 262 261 261 261 260 258 254 249 245 241 237 233 232 235 236 234 229 226 224 223 223 222 222 221 219 219 217 215 215 216 218 221 220 211 202 201 203 205 204 200 202 207 209 206 206 216 219 213 208 207 212 212 205 205 206 204 201 199 200 194 190 188
292 292 292 292 291 291 291 290 289 288 286 285 284 284 283 282 281 281 281 281 280 280 278 274 270 265 261 258 257 257 256 256 255 251 246 242 238 234 231 231 234 234 231 229 227 225 224 224 223 222 221 221 219 217 217 217 217 221 224 216 205 201 203 208 207 204 205 207 208 207 212 219 220 215 205 200 211 213 207 206 205 203 201 200 205 200 192 188
294 294 295 295 294 294 293 291 290 288 287 286 285 285 284 284 283 283 282 282 281 281 280 278 274 268 263 258 255 254 253 253 253 252 248 244 240 235 231 229 231 233 232 230 228 227 225 225 224 223 222 222 221 221 219 218 218 222 225 221 211 203 204 210 209 206 206 208 208 205 214 222 218 212 202 199 213 215 211 208 204 203 201 198 200 202 196 191
296 297 297 297 297 296 295 293 291 290 288 287 287 287 288 287 287 286 285 283 282 282 281 280 277 272 266 260 255 253 251 250 249 250 249 246 242 237 233 230 229 231 231 230 229 228 226 225 224 224 222 221 221 223 223 222 222 225 226 224 217 205 206 212 211 207 207 209 208 203 212 216 209 206 200 200 213 217 213 209 206 205 202 198 195 199 201 197
297 298 298 298 297 297 296 295 295 293 292 290 290 290 290 289 289 289 287 285 284 283 281 280 278 275 270 264 258 254 251 248 247 246 247 246 244 239 235 231 229 230 231 231 230 229 227 226 224 224 224 223 224 225 227 227 225 225 225 226 224 212 210 216 216 211 209 211 209 204 213 215 207 206 204 207 216 218 216 212 210 208 204 202 197 197 203 204
298 297 297 297 297 297 297 297 298 297 296 295 294 292 291 291 290 290 289 287 286 284 282 280 278 275 272 268 262 256 251 248 245 243 243 243 243 241 237 234 231 230 230 231 231 230 229 227 224 224 226 227 228 226 224 226 227 226 225 227 227 220 216 220 222 220 215 215 212 206 215 220 215 208 206 214 219 219 220 216 213 212 207 204 199 197 202 209
300 299 299 299 300 300 301 300 300 299 298 298 296 294 293 293 292 290 289 288 286 285 284 282 279 276 273 269 264 258 253 249 244 242 240 239 240 240 237 235 233 232 230 231 231 230 230 229 224 222 224 225 226 224 222 223 225 225 226 227 227 226 223 223 224 223 219 219 216 210 214 221 222 214 209 212 217 220 222 220 218 216 211 207 204 200 199 204
303 302 301 302 303 303 303 303 301 300 299 298 296 295 294 294 293 291 290 289 288 287 286 284 283 279 275 270 264 259 254 250 246 241 239 237 236 237 236 234 234 233 231 230 231 230 230 229 224 221 221 222 224 223 223 223 222 221 223 225 225 226 226 227 227 224 222 222 218 215 214 218 221 219 215 212 211 216 221 221 220 218 215 213 209 202 195 195
305 304 303 303 304 304 304 303 301 299 298 296 295 295 295 295 294 293 292 291 290 289 288 286 284 281 277 272 265 259 253 249 246 242 238 235 234 235 235 234 233 233 232 231 230 230 230 228 225 224 222 220 222 223 223 223 221 219 220 220 222 223 224 228 231 228 225 224 220 218 215 215 219 219 218 215 209 211 217 220 219 219 219 219 215 208 200 199
307 306 305 304 304 305 304 301 299 297 296 295 296 296 295 295 294 294 294 293 292 290 288 286 284 282 279 273 266 260 253 248 244 241 238 235 233 232 231 230 230 231 232 233 231 229 229 225 223 226 223 219 220 222 223 222 221 220 220 218 219 221 222 226 231 229 227 225 220 219 218 215 218 221 220 218 213 210 213 217 218 219 221 223 222 217 212 210
309 307 307 306 306 306 303 299 296 294 294 296 298 297 296 295 294 294 294 292 291 289 287 285 282 280 278 275 269 261 254 249 244 240 237 235 232 229 228 228 227 229 230 232 231 229 227 222 220 224 222 219 221 221 221 222 222 222 222 220 219 220 220 222 230 231 230 230 226 223 222 215 215 221 220 219 218 213 210 214 217 218 220 224 225 221 218 216
310 309 309 308 308 306 300 294 291 291 295 299 299 297 296 296 296 295 294 292 289 288 286 283 280 278 275 273 271 264 257 252 247 241 236 233 231 229 227 226 226 226 227 228 229 228 227 222 220 222 219 217 221 221 219 220 220 220 221 221 220 220 219 219 227 231 231 234 233 228 223 214 213 219 220 218 219 215 210 211 214 218 220 222 223 222 221 219
312 311 310 308 306 302 295 290 288 292 298 301 299 297 297 298 298 297 295 291 289 289 285 281 278 275 273 271 270 266 260 255 249 243 237 233 230 228 225 224 223 224 225 225 226 228 226 222 221 222 218 216 218 219 219 219 219 218 219 220 220 220 219 217 221 228 228 229 233 229 222 215 213 214 216 217 217 216 212 208 211 218 220 220 222 221 221 219
313 311 309 307 304 299 292 287 287 293 299 300 299 299 299 299 297 296 293 288 287 288 285 280 277 273 270 269 268 266 262 257 251 245 239 233 230 227 224 223 222 222 223 223 224 226 225 222 223 222 220 218 218 218 217 219 219 218 219 220 220 220 219 216 217 222 224 226 230 230 223 218 214 210 214 217 215 214 212 207 209 216 218 218 220 220 219 219
314 312 310 307 302 296 290 287 289 294 298 299 299 298 297 296 294 292 289 285 285 285 282 279 276 271 267 264 262 261 260 257 253 248 241 236 231 226 224 223 221 221 222 221 221 224 221 219 222 221 219 219 219 218 217 218 218 217 219 220 218 220 219 217 217 218 221 223 225 227 227 223 214 207 213 218 215 213 212 208 208 212 215 216 217 218 218 218
317 315 312 306 300 296 293 293 294 297 299 299 297 297 297 295 293 290 287 285 284 282 279 276 273 270 266 261 256 254 254 254 253 250 244 238 233 227 224 223 221 221 222 220 220 222 220 216 220 220 217 218 218 217 216 217 216 216 219 218 215 218 218 217 217 217 221 223 220 219 225 227 216 205 210 216 215 213 211 209 207 210 212 214 215 217 218 219
318 314 311 305 301 300 300 300 300 300 299 298 298 299 299 298 296 291 288 286 283 279 277 275 271 267 263 259 254 249 248 249 251 250 246 242 237 230 226 223 222 220 222 221 219 222 220 216 219 219 216 216 217 216 216 216 215 216 219 216 214 217 218 217 217 216 221 225 222 216 220 227 217 201 207 215 214 213 211 209 208 208 211 213 214 216 217 217
318 314 311 308 307 308 308 307 304 301 300 299 300 303 304 302 299 294 292 289 284 281 278 273 269 265 260 256 252 248 245 244 245 245 243 242 240 235 229 225 222 221 222 222 220 222 221 217 218 220 217 215 215 215 215 215 214 216 218 216 214 216 218 218 217 217 221 225 226 219 217 225 218 197 204 214 212 212 211 208 208 207 209 212 213 215 215 215
319 316 312 312 315 315 313 310 306 303 302 301 301 303 303 301 299 297 293 289 287 285 279 272 268 263 259 254 250 248 246 245 244 243 241 240 240 238 234 229 225 222 222 222 222 221 221 218 217 219 218 214 214 215 214 213 214 216 218 217 215 216 218 219 218 219 221 223 228 225 220 225 221 201 203 212 211 210 210 209 209 207 208 211 212 213 214 215
318 313 312 317 322 322 318 314 311 308 306 304 301 300 299 296 295 294 291 288 287 284 278 273 269 264 259 255 251 248 247 246 245 245 244 242 240 237 235 233 229 225 224 223 223 222 221 220 218 219 218 215 213 214 214 213 214 216 218 218 218 217 219 220 221 222 222 222 227 229 224 226 225 210 205 210 210 208 210 211 210 209 210 210 211 213 214 215
314 310 312 320 326 326 323 319 317 315 310 305 301 299 296 293 293 291 289 287 284 282 278 274 270 266 261 256 253 250 249 248 246 246 247 246 245 240 234 232 230 228 226 225 225 223 220 220 219 218 218 216 213 213 214 213 214 216 216 218 219 219 219 220 222 223 222 221 225 229 227 227 228 220 209 207 208 209 209 210 211 211 211 211 211 213 215 216
310 310 314 321 325 325 325 324 323 320 314 309 304 301 297 296 295 292 289 286 282 279 276 272 269 266 264 260 256 252 250 250 247 247 248 247 247 244 237 231 230 228 226 226 227 225 222 221 221 218 216 216 213 212 214 214 214 216 216 218 219 219 219 221 223 225 224 221 224 229 229 227 228 226 215 203 205 210 210 210 212 212 212 212 213 213 215 217
309 312 315 318 321 322 325 326 325 322 318 314 309 306 304 301 299 295 291 285 281 277 274 271 268 266 265 263 260 255 253 252 249 248 249 247 246 245 241 235 231 230 227 228 228 227 225 223 222 219 218 217 214 211 214 214 213 215 217 218 219 220 219 220 221 224 224 222 224 229 231 230 229 228 223 207 201 209 212 211 212 212 212 215 215 213 214 216
311 313 315 315 317 320 325 326 326 325 322 319 315 312 310 306 302 298 292 285 281 277 273 272 270 268 265 264 263 259 255 254 251 249 249 248 246 245 243 239 235 233 231 231 230 228 227 225 223 222 221 219 215 212 213 214 213 215 217 216 218 219 219 220 219 220 222 221 224 229 230 230 229 228 226 214 199 205 212 211 212 213 214 216 217 214 214 216
313 314 315 315 317 321 324 326 327 327 325 323 321 318 315 311 306 300 293 287 283 280 277 275 273 271 267 266 265 263 258 256 254 251 250 249 247 244 244 242 238 236 235 235 234 231 228 226 225 225 224 220 216 214 213 214 213 214 216 216 217 218 219 221 220 220 222 222 224 230 229 228 228 226 224 216 200 201 210 210 211 212 214 218 217 215 214 215
317 317 317 317 319 321 323 325 327 327 326 326 325 322 320 316 310 303 297 292 289 286 284 281 278 275 271 268 267 265 261 259 256 254 252 251 248 245 244 243 240 238 237 238 237 234 231 227 226 228 227 221 218 216 214 214 215 215 217 218 217 217 217 220 221 220 222 223 225 230 230 228 229 224 222 218 204 200 208 211 210 209 213 217 216 215 215 215
322 320 318 317 318 321 323 325 328 329 328 327 326 324 323 319 315 310 305 301 298 295 292 288 284 280 277 274 270 267 264 262 259 257 255 253 251 247 244 243 242 241 239 239 238 235 232 228 227 229 228 223 219 218 215 214 214 214 216 218 219 219 218 218 219 218 220 223 226 230 230 230 230 223 219 220 211 202 206 210 209 209 212 215 214 214 215 215
323 320 317 317 319 322 325 329 331 330 329 328 326 326 324 321 318 313 309 306 303 299 295 291 287 284 281 278 276 273 271 268 265 261 258 255 253 250 246 243 243 241 240 239 239 237 234 231 229 229 229 225 221 219 217 215 213 213 214 215 217 220 221 220 220 219 220 222 225 229 230 229 229 221 215 220 218 207 205 208 208 207 210 213 212 213 215 214
323 320 318 320 323 326 329 334 334 332 330 329 328 328 326 323 319 314 310 308 303 298 292 288 285 284 282 282 282 281 279 275 272 267 262 258 255 251 248 245 242 240 239 238 238 237 234 232 232 230 229 228 225 223 219 216 214 214 214 214 214 217 218 218 219 219 219 221 225 230 229 228 228 220 212 218 220 213 208 208 208 207 208 209 209 210 212 212
325 323 323 325 327 330 334 336 335 333 332 332 333 332 330 327 322 318 313 309 303 297 293 289 288 287 287 288 288 286 282 277 272 267 261 257 254 251 249 246 243 239 237 236 236 236 233 231 231 230 228 228 226 225 222 219 215 213 215 216 216 215 215 216 217 217 217 218 222 228 230 230 229 220 211 216 220 215 210 207 207 208 208 208 207 208 209 210
329 328 329 331 332 335 339 338 335 335 336 339 340 337 336 334 329 323 316 310 306 301 298 295 294 294 295 295 291 285 278 272 264 257 251 250 251 249 246 244 241 238 235 234 234 233 231 229 229 228 227 225 224 223 222 220 217 214 215 217 217 216 217 217 218 218 219 218 221 225 226 229 229 219 209 215 219 215 210 206 206 208 207 207 208 207 208 209
334 334 334 337 339 341 341 339 338 340 343 345 346 343 342 342 335 327 320 315 311 307 303 302 301 302 302 297 288 281 275 268 258 253 248 243 243 244 241 240 239 238 235 232 230 229 228 227 227 227 226 223 222 221 221 220 217 214 215 216 216 216 216 217 218 219 219 219 221 225 225 227 227 217 206 214 218 214 211 206 204 206 205 205 206 206 206 207
341 341 341 343 345 345 343 343 344 347 349 351 351 349 349 347 341 333 326 321 317 311 308 307 307 307 303 294 286 281 275 267 261 256 250 242 238 239 239 237 238 239 236 232 229 227 226 225 225 226 225 224 222 220 220 220 218 215 214 214 214 214 215 217 217 218 219 218 220 225 226 226 225 216 207 212 216 213 211 205 202 204 204 203 204 205 206 206
346 347 348 349 349 347 346 348 350 352 354 355 356 355 354 351 345 338 332 327 322 317 314 313 311 308 303 291 284 281 275 269 265 260 252 243 238 238 237 234 234 236 235 233 230 227 226 224 223 224 224 223 222 221 219 220 220 218 216 214 214 214 214 216 217 217 219 220 219 223 226 224 221 216 210 211 214 214 211 206 201 203 205 203 203 205 205 206
348 351 355 355 352 350 351 354 357 357 356 356 358 359 357 354 347 342 338 332 327 324 322 317 312 309 302 290 281 279 276 270 265 261 253 242 235 232 230 229 229 229 229 232 232 230 228 225 223 224 224 223 223 222 220 220 221 219 217 216 215 215 215 216 216 216 218 220 220 222 226 223 218 216 212 210 215 217 214 210 205 204 206 206 204 205 205 205
350 355 359 359 356 355 358 1 2 0 356 355 358 360 359 356 350 345 342 336 332 331 328 321 312 308 304 293 281 277 274 270 264 261 255 243 233 226 223 223 223 223 223 226 228 229 229 226 224 224 225 223 222 222 220 219 221 220 218 216 215 215 216 216 217 216 217 220 221 222 226 223 216 214 211 208 213 217 214 213 209 205 207 208 206 206 206 206
352 357 360 0 360 1 3 3 3 1 358 357 357 359 0 358 354 348 344 340 338 336 332 324 313 307 305 298 287 279 276 274 268 264 261 252 240 230 223 220 220 220 220 221 224 226 228 228 226 225 225 222 220 220 220 218 220 220 218 216 215 215 216 217 217 216 217 220 221 222 225 222 215 213 210 206 211 215 214 213 211 207 208 209 209 208 208 209
356 358 0 1 1 3 4 3 1 1 1 360 359 359 360 359 356 352 347 344 345 343 337 328 317 310 308 303 296 289 284 281 273 267 264 258 251 243 232 223 221 220 220 220 222 223 225 227 228 229 227 223 219 219 219 217 218 219 217 215 215 215 216 217 218 217 216 218 221 223 224 221 213 210 209 206 209 213 215 215 213 210 209 209 211 211 210 211
Height
5873 5872 5872 5872 5871 5871 5871 5871 5871 5871 5871 5871 5871 5871 5871 5871 5872 5873 5873 5873 5873 5873 5874 5874 5875 5875 5875 5875 5876 5876 5876 5877 5878 5880 5881 5881 5882 5883 5884 5885 5886 5886 5887 5889 5890 5891 5892 5894 5895 5897 5899 5900 5901 5902 5903 5903 5904 5904 5905 5905 5906 5906 5907 5907 5907 5908 5909 5909 5910 5911 5911 5911 5912 5912 5912 5913 5913 5914 5914 5914 5914 5915 5915 5915 5916 5916 5917 5918
5870 5870 5870 5869 5869 5869 5869 5868 5868 5868 5868 5868 5868 5868 5869 5869 5869 5870 5871 5871 5872 5872 5872 5873 5873 5874 5874 5874 5874 5874 5875 5875 5877 5878 5879 5879 5881 5882 5883 5884 5884 5884 5885 5887 5887 5888 5889 5891 5892 5894 5896 5898 5900 5901 5902 5902 5903 5904 5904 5905 5906 5906 5907 5907 5908 5908 5909 5909 5910 5911 5911 5912 5912 5912 5913 5913 5913 5913 5913 5914 5914 5914 5915 5915 5916 5916 5916 5917
5868 5868 5867 5867 5867 5866 5866 5866 5866 5866 5866 5866 5866 5866 5866 5866 5866 5867 5868 5869 5869 5870 5870 5871 5871 5872 5872 5872 5872 5872 5873 5874 5875 5876 5876 5877 5879 5881 5881 5882 5883 5883 5883 5884 5885 5885 5886 5888 5889 5891 5893 5896 5898 5900 5901 5902 5903 5903 5904 5905 5905 5906 5907 5907 5907 5908 5908 5909 5910 5910 5911 5912 5912 5912 5913 5913 5913 5913 5913 5914 5914 5914 5915 5915 5915 5916 5916 5917
5866 5865 5865 5865 5864 5864 5864 5863 5863 5863 5863 5863 5863 5863 5863 5863 5864 5864 5865 5866 5867 5867 5868 5868 5869 5870 5870 5871 5871 5871 5871 5872 5873 5874 5874 5876 5878 5879 5880 5879 5880 5882 5882 5883 5884 5885 5886 5888 5890 5891 5893 5895 5897 5899 5900 5901 5901 5902 5903 5904 5905 5906 5907 5907 5907 5908 5908 5909 5909 5910 5911 5912 5913 5912 5912 5913 5913 5913 5913 5914 5914 5914 5915 5915 5916 5916 5916 5917
5864 5863 5863 5862 5862 5862 5862 5861 5861 5861 5861 5860 5860 5860 5861 5861 5861 5861 5862 5863 5864 5865 5865 5866 5866 5867 5868 5868 5869 5869 5869 5870 5871 5872 5873 5874 5876 5877 5877 5877 5879 5880 5881 5882 5884 5884 5886 5887 5889 5891 5893 5895 5897 5898 5899 5900 5900 5901 5902 5903 5904 5905 5906 5907 5907 5907 5908 5908 5909 5910 5911 5912 5913 5913 5913 5913 5912 5913 5913 5913 5914 5914 5914 5915 5916 5916 5917 5917
5862 5862 5861 5860 5860 5860 5860 5859 5859 5859 5858 5858 5858 5858 5858 5858 5858 5858 5859 5860 5861 5862 5862 5863 5864 5864 5865 5866 5867 5867 5867 5868 5869 5869 5871 5872 5874 5875 5875 5875 5878 5880 5880 5881 5883 5884 5885 5886 5888 5890 5892 5894 5896 5897 5897 5898 5898 5899 5900 5902 5903 5904 5905 5906 5906 5907 5908 5908 5909 5910 5911 5912 5913 5913 5913 5913 5912 5912 5913 5913 5913 5913 5914 5915 5915 5916 5917 5917
5860 5860 5859 5859 5858 5858 5858 5857 5857 5857 5856 5856 5856 5856 5856 5856 5856 5856 5856 5857 5858 5858 5859 5860 5861 5861 5862 5863 5864 5864 5865 5866 5867 5867 5869 5871 5871 5873 5873 5874 5876 5878 5879 5880 5882 5883 5884 5885 5886 5888 5889 5892 5893 5894 5895 5897 5897 5898 5899 5900 5902 5903 5903 5905 5906 5907 5908 5908 5909 5910 5911 5912 5912 5913 5913 5913 5913 5913 5913 5913 5913 5913 5914 5914 5915 5916 5917 5918
5858 5858 5857 5856 5856 5856 5855 5855 5855 5854 5854 5854 5853 5854 5854 5854 5853 5854 5854 5854 5855 5855 5856 5857 5858 5858 5859 5860 5860 5861 5862 5864 5865 5866 5868 5869 5870 5870 5871 5872 5874 5876 5877 5878 5879 5880 5882 5883 5884 5885 5886 5888 5890 5891 5893 5895 5896 5897 5897 5899 5901 5902 5902 5904 5905 5907 5908 5908 5909 5909 5911 5912 5912 5912 5912 5913 5913 5913 5913 5913 5913 5913 5914 5914 5915 5916 5916 5917
5856 5855 5855 5854 5853 5853 5852 5852 5852 5852 5851 5851 5851 5851 5851 5851 5851 5852 5852 5852 5852 5853 5853 5853 5854 5855 5856 5856 5857 5858 5859 5861 5863 5864 5866 5867 5868 5867 5868 5870 5871 5873 5875 5876 5877 5879 5880 5881 5881 5882 5883 5884 5886 5888 5890 5892 5893 5894 5895 5897 5899 5901 5902 5903 5905 5906 5907 5908 5908 5909 5910 5911 5912 5912 5912 5912 5913 5913 5913 5912 5913 5913 5914 5914 5915 5916 5916 5917
5853 5852 5852 5851 5850 5850 5849 5849 5849 5848 5848 5848 5848 5848 5848 5849 5849 5849 5850 5850 5850 5850 5850 5851 5851 5852 5852 5853 5854 5854 5856 5858 5859 5861 5863 5864 5865 5865 5865 5867 5869 5870 5872 5873 5875 5877 5878 5877 5877 5879 5880 5882 5883 5884 5886 5888 5891 5891 5893 5896 5898 5900 5902 5903 5904 5906 5907 5907 5907 5908 5909 5911 5912 5912 5912 5912 5912 5912 5912 5912 5913 5913 5914 5914 5915 5915 5916 5917
5850 5849 5848 5848 5847 5846 5846 5845 5845 5845 5845 5845 5844 5845 5845 5845 5846 5846 5847 5847 5847 5848 5848 5848 5848 5848 5849 5850 5850 5851 5852 5854 5856 5857 5859 5861 5862 5862 5862 5864 5866 5868 5869 5870 5872 5873 5873 5873 5875 5877 5878 5880 5881 5883 5884 5886 5888 5889 5891 5894 5896 5898 5900 5902 5903 5904 5905 5906 5907 5908 5909 5910 5911 5911 5911 5912 5912 5913 5913 5913 5913 5913 5914 5914 5914 5915 5916 5916
5847 5846 5845 5844 5844 5843 5843 5842 5842 5841 5841 5841 5841 5841 5841 5841 5842 5843 5843 5843 5844 5844 5845 5845 5845 5845 5845 5846 5847 5847 5848 5850 5852 5854 5855 5857 5859 5860 5859 5860 5863 5865 5866 5868 5868 5869 5869 5870 5874 5875 5876 5879 5880 5881 5882 5884 5885 5886 5889 5892 5894 5897 5899 5900 5902 5903 5904 5905 5906 5907 5908 5909 5909 5910 5911 5912 5912 5913 5913 5913 5913 5914 5914 5914 5914 5915 5915 5916
5844 5843 5842 5841 5840 5840 5839 5839 5838 5837 5837 5837 5837 5837 5837 5837 5838 5839 5839 5839 5840 5841 5841 5842 5842 5842 5842 5842 5843 5844 5844 5846 5848 5849 5851 5853 5856 5857 5857 5857 5859 5861 5863 5864 5865 5865 5866 5869 5871 5872 5875 5877 5877 5878 5881 5883 5884 5884 5888 5891 5893 5895 5897 5898 5900 5901 5902 5903 5904 5905 5906 5906 5906 5908 5910 5911 5912 5913 5913 5913 5913 5914 5914 5914 5914 5915 5915 5916
5841 5840 5839 5838 5837 5836 5835 5835 5834 5834 5833 5833 5832 5832 5832 5833 5834 5834 5835 5835 5835 5836 5837 5837 5838 5838 5838 5839 5840 5840 5841 5842 5844 5846 5847 5849 5851 5854 5854 5854 5855 5858 5860 5860 5861 5862 5864 5866 5867 5870 5873 5874 5874 5878 5881 5882 5883 5884 5886 5888 5891 5893 5895 5896 5898 5899 5901 5902 5903 5904 5904 5904 5905 5906 5907 5909 5911 5912 5913 5913 5913 5913 5913 5914 5914 5914 5915 5915
5837 5836 5835 5834 5833 5833 5832 5831 5830 5829 5829 5828 5828 5827 5827 5828 5828 5830 5830 5830 5831 5831 5832 5832 5833 5834 5834 5835 5835 5836 5837 5838 5839 5841 5843 5844 5847 5849 5851 5851 5852 5854 5856 5857 5858 5859 5861 5862 5864 5868 5871 5871 5874 5877 5879 5880 5882 5883 5884 5887 5890 5892 5894 5895 5896 5898 5899 5900 5901 5902 5903 5902 5903 5905 5906 5907 5909 5911 5912 5913 5913 5913 5913 5913 5914 5914 5914 5915
5833 5832 5831 5830 5829 5828 5828 5827 5826 5825 5824 5824 5823 5822 5822 5822 5823 5824 5824 5825 5825 5826 5827 5827 5827 5829 5829 5830 5831 5832 5833 5834 5835 5837 5838 5840 5842 5844 5847 5847 5848 5849 5851 5853 5854 5856 5857 5859 5862 5865 5866 5869 5873 5875 5876 5878 5879 5881 5883 5886 5889 5891 5892 5893 5895 5897 5898 5898 5900 5901 5901 5901 5902 5904 5904 5905 5908 5910 5911 5912 5912 5912 5912 5913 5913 5914 5914 5914
5828 5827 5826 5825 5824 5824 5823 5822 5821 5819 5819 5818 5818 5817 5816 5816 5817 5818 5818 5819 5819 5820 5821 5821 5822 5823 5823 5825 5826 5827 5828 5830 5831 5832 5834 5836 5837 5840 5842 5843 5844 5845 5847 5849 5850 5852 5854 5856 5859 5861 5863 5866 5869 5871 5872 5874 5878 5881 5882 5885 5887 5890 5891 5891 5893 5894 5896 5897 5899 5900 5899 5899 5901 5902 5902 5904 5907 5909 5910 5911 5911 5912 5912 5912 5913 5913 5914 5914
5823 5822 5821 5820 5819 5818 5818 5817 5815 5814 5813 5812 5812 5811 5810 5810 5811 5812 5812 5812 5813 5814 5815 5815 5816 5816 5817 5819 5820 5821 5823 5825 5827 5828 5829 5831 5833 5835 5837 5838 5839 5840 5842 5844 5846 5848 5850 5853 5855 5857 5859 5862 5865 5867 5870 5876 5880 5880 5880 5883 5886 5888 5889 5889 5890 5892 5894 5895 5897 5899 5898 5899 5900 5901 5901 5902 5906 5908 5909 5910 5910 5910 5911 5911 5912 5912 5913 5914
5818 5817 5816 5814 5814 5813 5812 5811 5810 5808 5807 5806 5806 5805 5804 5804 5805 5806 5806 5806 5807 5807 5808 5809 5809 5809 5811 5813 5814 5816 5817 5819 5821 5823 5824 5826 5828 5830 5832 5833 5835 5836 5838 5840 5842 5844 5846 5848 5851 5853 5857 5862 5865 5868 5872 5876 5876 5876 5879 5882 5884 5887 5888 5888 5888 5890 5892 5894 5895 5897 5897 5897 5898 5899 5900 5901 5904 5907 5907 5909 5909 5910 5911 5911 5911 5912 5913 5913
5813 5812 5811 5809 5808 5807 5807 5806 5804 5803 5801 5800 5800 5799 5798 5797 5798 5799 5800 5800 5800 5800 5801 5802 5803 5803 5804 5806 5808 5810 5811 5813 5815 5817 5819 5821 5822 5824 5827 5828 5830 5831 5833 5835 5838 5840 5842 5844 5847 5853 5858 5862 5863 5865 5868 5869 5870 5874 5878 5879 5881 5885 5886 5887 5887 5888 5891 5892 5894 5896 5895 5894 5896 5898 5899 5901 5903 5905 5907 5908 5909 5910 5910 5911 5911 5911 5912 5913
5807 5807 5805 5804 5803 5802 5801 5800 5799 5797 5796 5795 5794 5793 5792 5791 5791 5792 5793 5794 5793 5793 5794 5794 5795 5796 5797 5799 5801 5803 5804 5806 5808 5811 5813 5815 5816 5818 5821 5823 5825 5827 5829 5831 5833 5836 5838 5840 5846 5853 5855 5856 5857 5860 5862 5863 5866 5871 5874 5876 5878 5881 5883 5884 5884 5885 5888 5890 5892 5893 5893 5893 5895 5897 5898 5900 5902 5904 5906 5908 5909 5909 5909 5910 5910 5910 5911 5913
5802 5801 5800 5799 5798 5796 5795 5794 5793 5792 5791 5790 5789 5787 5787 5786 5785 5785 5786 5786 5786 5787 5787 5787 5787 5788 5790 5792 5794 5796 5797 5799 5802 5804 5806 5809 5810 5811 5815 5818 5820 5822 5824 5825 5827 5831 5834 5838 5846 5849 5849 5850 5852 5855 5857 5858 5862 5866 5869 5871 5875 5877 5879 5880 5880 5883 5886 5888 5890 5891 5892 5893 5893 5895 5896 5898 5900 5902 5904 5906 5907 5908 5908 5909 5909 5909 5911 5912
5797 5796 5795 5794 5793 5791 5790 5789 5788 5787 5786 5785 5784 5783 5782 5781 5780 5780 5779 5779 5780 5780 5780 5780 5780 5781 5782 5784 5786 5789 5790 5791 5794 5797 5799 5802 5803 5806 5810 5813 5815 5817 5818 5819 5822 5827 5831 5838 5844 5843 5843 5846 5848 5851 5853 5855 5858 5860 5863 5866 5870 5873 5875 5877 5877 5880 5882 5885 5887 5888 5889 5890 5891 5892 5893 5896 5899 5900 5902 5904 5905 5906 5908 5908 5908 5908 5909 5910
5793 5792 5790 5789 5788 5787 5785 5784 5783 5782 5781 5780 5779 5778 5777 5777 5776 5775 5774 5774 5774 5774 5774 5774 5774 5774 5775 5776 5779 5781 5782 5784 5786 5789 5792 5794 5796 5800 5803 5806 5808 5810 5812 5814 5819 5823 5826 5834 5838 5835 5838 5842 5844 5846 5848 5850 5853 5855 5858 5861 5866 5868 5871 5874 5873 5874 5878 5880 5883 5886 5886 5887 5888 5889 5891 5895 5897 5898 5900 5902 5904 5906 5907 5907 5908 5908 5909 5909
5789 5787 5786 5784 5783 5782 5780 5779 5778 5778 5777 5776 5775 5774 5773 5773 5772 5771 5770 5769 5769 5769 5769 5769 5769 5769 5769 5770 5772 5773 5775 5776 5779 5782 5785 5788 5790 5793 5795 5798 5801 5804 5806 5810 5814 5817 5820 5827 5830 5828 5834 5839 5840 5841 5844 5847 5850 5852 5854 5858 5862 5864 5867 5870 5868 5871 5875 5877 5880 5882 5881 5883 5886 5887 5890 5892 5894 5895 5897 5900 5903 5904 5905 5906 5908 5909 5909 5909
5785 5783 5781 5780 5778 5777 5776 5775 5774 5774 5773 5772 5771 5770 5769 5769 5768 5767 5766 5765 5764 5765 5765 5764 5764 5764 5764 5765 5766 5767 5768 5769 5772 5775 5777 5781 5783 5785 5788 5792 5795 5797 5800 5803 5807 5810 5814 5821 5823 5823 5830 5834 5834 5836 5839 5842 5845 5847 5850 5854 5857 5859 5862 5866 5867 5869 5872 5874 5876 5874 5875 5881 5884 5884 5887 5889 5891 5893 5895 5897 5900 5902 5903 5905 5907 5908 5908 5909
5781 5779 5777 5775 5774 5773 5772 5771 5771 5770 5769 5768 5767 5766 5765 5764 5764 5763 5762 5761 5759 5760 5761 5759 5760 5759 5759 5761 5761 5762 5763 5763 5766 5768 5770 5773 5776 5779 5782 5784 5787 5790 5792 5797 5800 5803 5809 5815 5817 5819 5824 5826 5828 5831 5835 5838 5840 5843 5846 5848 5850 5853 5857 5862 5864 5865 5868 5870 5868 5865 5872 5878 5879 5881 5884 5885 5887 5890 5892 5894 5897 5899 5901 5904 5905 5907 5908 5908
5777 5775 5773 5771 5770 5769 5769 5768 5767 5766 5765 5764 5762 5762 5761 5760 5759 5758 5758 5756 5755 5756 5756 5755 5756 5756 5755 5756 5757 5757 5758 5759 5760 5761 5763 5766 5769 5772 5775 5777 5780 5783 5786 5791 5795 5798 5804 5810 5812 5815 5819 5822 5824 5828 5832 5834 5836 5840 5841 5841 5845 5850 5853 5857 5858 5859 5862 5863 5860 5862 5870 5872 5874 5879 5881 5881 5884 5887 5889 5892 5894 5896 5900 5902 5904 5905 5906 5907
5773 5771 5769 5767 5766 5765 5765 5765 5764 5762 5761 5760 5758 5758 5757 5756 5754 5753 5753 5752 5751 5752 5752 5751 5752 5751 5752 5752 5753 5753 5753 5755 5755 5756 5758 5760 5762 5766 5768 5770 5774 5776 5779 5785 5788 5790 5797 5804 5805 5808 5813 5816 5820 5824 5827 5828 5831 5837 5836 5837 5843 5846 5848 5850 5850 5853 5855 5854 5855 5860 5865 5866 5871 5876 5877 5878 5881 5884 5888 5890 5892 5894 5898 5900 5902 5904 5904 5906
5769 5767 5766 5764 5763 5762 5761 5761 5760 5758 5757 5756 5754 5753 5752 5751 5750 5748 5747 5747 5747 5747 5747 5747 5747 5747 5747 5748 5749 5749 5749 5750 5751 5752 5754 5754 5757 5760 5762 5765 5768 5771 5773 5778 5781 5782 5789 5796 5796 5799 5806 5810 5814 5818 5820 5822 5828 5831 5830 5833 5839 5839 5841 5843 5845 5849 5847 5844 5849 5857 5860 5861 5865 5871 5873 5874 5878 5882 5886 5889 5890 5892 5895 5898 5899 5901 5903 5904
5766 5764 5763 5761 5760 5758 5757 5757 5756 5754 5753 5751 5750 5749 5748 5746 5745 5744 5742 5742 5742 5742 5743 5743 5743 5743 5742 5743 5744 5745 5746 5747 5747 5749 5750 5750 5752 5754 5757 5759 5762 5765 5767 5771 5775 5777 5782 5789 5790 5793 5799 5804 5808 5811 5814 5818 5823 5825 5824 5828 5833 5834 5835 5837 5839 5842 5838 5837 5845 5854 5857 5856 5859 5867 5871 5872 5875 5880 5884 5887 5888 5890 5892 5895 5897 5899 5901 5903
5763 5761 5760 5758 5756 5755 5753 5752 5751 5750 5748 5747 5745 5744 5743 5742 5741 5740 5739 5738 5738 5738 5739 5738 5738 5739 5738 5738 5740 5741 5742 5743 5744 5745 5746 5747 5748 5749 5751 5754 5756 5760 5762 5765 5769 5771 5776 5784 5786 5788 5792 5797 5802 5805 5809 5813 5817 5818 5819 5823 5827 5828 5829 5830 5833 5834 5834 5836 5842 5850 5855 5851 5854 5865 5868 5867 5872 5877 5881 5884 5885 5887 5890 5892 5895 5897 5899 5900
5760 5758 5757 5755 5753 5751 5750 5748 5747 5745 5744 5742 5741 5740 5739 5738 5737 5736 5735 5734 5734 5734 5734 5734 5734 5734 5734 5734 5735 5737 5737 5738 5740 5741 5742 5744 5744 5745 5747 5749 5751 5754 5756 5759 5762 5766 5772 5778 5779 5780 5784 5791 5796 5799 5804 5809 5812 5813 5814 5818 5821 5822 5823 5826 5829 5831 5833 5838 5840 5845 5850 5846 5850 5861 5862 5862 5868 5873 5876 5879 5881 5884 5887 5889 5892 5894 5896 5897
5757 5755 5754 5752 5750 5748 5747 5745 5743 5741 5739 5738 5737 5736 5736 5734 5733 5733 5732 5731 5730 5730 5730 5730 5730 5730 5730 5730 5731 5732 5733 5734 5735 5736 5738 5739 5740 5741 5743 5744 5747 5749 5751 5753 5756 5760 5765 5770 5772 5774 5779 5785 5791 5795 5800 5804 5806 5808 5811 5814 5816 5818 5820 5824 5827 5828 5833 5838 5838 5840 5842 5841 5847 5856 5858 5860 5866 5870 5873 5876 5879 5881 5883 5886 5889 5891 5893 5895
5754 5752 5750 5749 5747 5745 5744 5741 5739 5737 5736 5735 5734 5733 5732 5731 5730 5729 5728 5727 5726 5726 5726 5725 5725 5725 5725 5726 5727 5728 5729 5729 5731 5732 5732 5734 5735 5737 5739 5740 5742 5744 5746 5748 5750 5752 5758 5763 5764 5767 5772 5779 5785 5790 5793 5796 5799 5803 5806 5807 5809 5814 5818 5821 5823 5825 5830 5835 5834 5833 5835 5838 5844 5849 5854 5860 5865 5868 5870 5872 5875 5878 5881 5884 5885 5888 5890 5893
5751 5749 5747 5746 5744 5743 5741 5738 5736 5734 5733 5732 5730 5729 5728 5727 5726 5725 5724 5723 5722 5722 5722 5721 5721 5721 5720 5721 5722 5723 5724 5724 5726 5727 5727 5728 5730 5731 5734 5736 5737 5739 5741 5742 5743 5747 5752 5756 5755 5759 5766 5771 5777 5783 5786 5790 5795 5798 5799 5801 5805 5812 5816 5818 5821 5822 5826 5830 5829 5828 5830 5834 5839 5843 5851 5860 5864 5865 5867 5870 5872 5875 5879 5881 5882 5885 5889 5891
5747 5746 5745 5743 5741 5740 5738 5735 5733 5731 5730 5728 5727 5726 5725 5723 5722 5721 5720 5719 5718 5718 5717 5716 5717 5717 5716 5716 5716 5718 5719 5719 5720 5721 5721 5722 5724 5725 5728 5731 5733 5734 5736 5737 5739 5742 5746 5749 5750 5756 5762 5763 5769 5776 5779 5784 5789 5791 5793 5797 5803 5808 5811 5813 5816 5818 5821 5824 5825 5825 5826 5831 5835 5840 5848 5857 5862 5863 5866 5868 5871 5873 5876 5877 5879 5883 5887 5890
5745 5743 5742 5740 5739 5737 5735 5732 5730 5728 5726 5725 5724 5722 5721 5719 5718 5717 5716 5715 5714 5713 5713 5712 5712 5712 5712 5711 5710 5712 5713 5713 5713 5715 5715 5715 5717 5719 5721 5724 5727 5729 5731 5733 5734 5737 5741 5744 5747 5751 5754 5757 5763 5770 5773 5777 5782 5784 5788 5793 5796 5800 5803 5806 5808 5811 5815 5818 5820 5820 5822 5827 5831 5836 5844 5852 5859 5861 5864 5867 5869 5871 5874 5874 5877 5881 5885 5888
5742 5741 5739 5738 5736 5734 5731 5729 5727 5725 5723 5722 5720 5719 5717 5716 5714 5713 5712 5711 5710 5709 5709 5708 5708 5707 5707 5706 5705 5705 5706 5707 5707 5708 5708 5707 5710 5713 5714 5716 5720 5723 5726 5727 5729 5732 5736 5739 5741 5743 5745 5749 5755 5760 5764 5770 5775 5779 5782 5785 5788 5792 5796 5799 5803 5809 5812 5815 5816 5816 5819 5824 5828 5834 5841 5847 5855 5859 5861 5864 5866 5869 5871 5872 5875 5879 5882 5885
5739 5738 5736 5735 5733 5731 5729 5726 5724 5722 5720 5719 5717 5715 5714 5712 5711 5710 5708 5707 5707 5706 5705 5704 5703 5702 5701 5701 5700 5698 5698 5700 5700 5701 5701 5700 5702 5705 5706 5709 5713 5716 5720 5722 5724 5728 5729 5732 5735 5736 5737 5743 5749 5754 5760 5766 5771 5774 5775 5778 5781 5785 5790 5794 5798 5804 5808 5811 5813 5812 5816 5822 5825 5830 5837 5843 5850 5856 5858 5861 5863 5866 5867 5869 5872 5876 5879 5882
5737 5735 5734 5732 5730 5728 5726 5724 5722 5720 5717 5716 5714 5712 5710 5709 5707 5706 5705 5703 5702 5702 5701 5699 5698 5696 5695 5694 5693 5691 5691 5692 5691 5692 5693 5692 5693 5695 5697 5702 5705 5709 5712 5715 5717 5719 5722 5725 5728 5729 5731 5737 5744 5749 5753 5757 5760 5765 5769 5773 5778 5782 5785 5788 5792 5799 5803 5806 5808 5808 5813 5818 5820 5826 5834 5839 5845 5852 5855 5857 5860 5862 5864 5866 5870 5873 5876 5879
5734 5733 5731 5730 5727 5725 5723 5721 5719 5717 5715 5713 5711 5709 5707 5705 5704 5702 5701 5700 5698 5697 5696 5694 5692 5690 5687 5686 5684 5683 5683 5682 5682 5684 5684 5684 5684 5685 5689 5694 5697 5700 5704 5706 5708 5711 5716 5719 5721 5723 5727 5732 5737 5740 5743 5748 5753 5758 5762 5767 5774 5777 5780 5784 5789 5795 5798 5801 5803 5804 5808 5814 5816 5823 5832 5836 5841 5847 5850 5852 5855 5858 5861 5864 5868 5870 5873 5877
5732 5730 5729 5727 5725 5723 5720 5718 5716 5714 5712 5710 5708 5706 5704 5702 5700 5699 5697 5696 5694 5693 5691 5688 5686 5683 5680 5678 5676 5674 5674 5673 5673 5674 5674 5674 5674 5676 5681 5684 5687 5691 5694 5696 5698 5703 5710 5714 5715 5719 5723 5727 5731 5734 5738 5743 5748 5752 5757 5761 5765 5768 5772 5777 5782 5787 5791 5796 5799 5799 5803 5809 5813 5820 5830 5834 5836 5842 5846 5849 5852 5854 5856 5859 5863 5866 5869 5873
5730 5728 5726 5724 5722 5720 5718 5716 5714 5712 5710 5708 5706 5703 5701 5699 5697 5695 5694 5692 5690 5688 5686 5683 5680 5676 5673 5670 5668 5667 5666 5666 5666 5666 5665 5665 5665 5668 5672 5674 5677 5681 5683 5686 5690 5696 5703 5707 5708 5712 5717 5721 5726 5729 5732 5736 5740 5747 5752 5754 5755 5759 5764 5768 5774 5780 5785 5790 5794 5795 5800 5806 5810 5818 5828 5831 5832 5837 5842 5845 5848 5851 5853 5855 5857 5860 5864 5869
5727 5725 5723 5722 5720 5718 5716 5714 5712 5710 5708 5706 5703 5701 5699 5697 5695 5693 5691 5689 5687 5684 5680 5677 5673 5670 5667 5664 5663 5661 5660 5660 5661 5659 5659 5659 5659 5661 5663 5665 5668 5671 5673 5678 5684 5689 5694 5697 5701 5705 5709 5715 5719 5722 5724 5728 5734 5741 5743 5743 5747 5754 5758 5765 5772 5776 5780 5786 5788 5789 5795 5801 5805 5815 5825 5827 5828 5833 5837 5841 5844 5847 5851 5853 5856 5859 5862 5866
5725 5723 5721 5719 5717 5716 5714 5712 5710 5708 5706 5703 5701 5699 5697 5695 5692 5690 5688 5685 5682 5679 5675 5671 5667 5664 5662 5659 5658 5656 5655 5656 5655 5654 5655 5655 5655 5656 5657 5659 5660 5662 5666 5671 5675 5679 5684 5688 5694 5698 5702 5708 5711 5712 5715 5720 5725 5731 5732 5735 5741 5747 5753 5760 5765 5768 5774 5781 5783 5784 5790 5795 5800 5812 5822 5823 5824 5828 5833 5837 5841 5844 5847 5850 5853 5856 5859 5862
5723 5721 5719 5717 5715 5714 5712 5710 5708 5706 5704 5702 5699 5697 5695 5692 5690 5687 5684 5681 5678 5674 5669 5666 5662 5660 5658 5656 5654 5653 5652 5652 5652 5651 5651 5651 5652 5653 5654 5655 5656 5657 5660 5663 5667 5671 5675 5680 5686 5690 5695 5700 5703 5705 5708 5713 5718 5721 5724 5728 5734 5741 5748 5753 5757 5763 5769 5773 5777 5780 5785 5789 5797 5810 5817 5817 5819 5823 5826 5830 5834 5837 5841 5844 5847 5851 5854 5857
5721 5719 5717 5715 5714 5712 5710 5708 5706 5704 5702 5700 5698 5695 5693 5690 5687 5683 5680 5676 5673 5669 5665 5661 5658 5656 5654 5653 5651 5650 5650 5649 5649 5649 5648 5648 5649 5650 5651 5652 5652 5654 5656 5658 5661 5665 5668 5673 5678 5682 5686 5692 5696 5699 5703 5707 5711 5715 5719 5725 5731 5736 5742 5746 5751 5758 5762 5766 5772 5775 5776 5783 5796 5806 5810 5812 5815 5819 5821 5825 5829 5832 5835 5839 5842 5846 5850 5853
5719 5718 5716 5714 5712 5711 5709 5707 5705 5702 5700 5698 5696 5693 5690 5687 5683 5680 5676 5672 5668 5665 5661 5657 5655 5653 5652 5650 5649 5648 5648 5647 5647 5646 5646 5646 5646 5647 5648 5649 5650 5652 5653 5654 5657 5659 5662 5667 5671 5674 5678 5684 5690 5695 5698 5702 5706 5709 5715 5721 5727 5731 5736 5741 5745 5751 5756 5761 5768 5770 5770 5779 5794 5801 5805 5811 5814 5817 5820 5822 5826 5829 5831 5834 5838 5841 5844 5847
5718 5716 5715 5713 5711 5709 5707 5705 5703 5701 5699 5697 5694 5691 5687 5684 5680 5676 5673 5669 5665 5661 5657 5654 5652 5651 5650 5648 5647 5647 5646 5646 5645 5645 5644 5644 5644 5645 5646 5646 5648 5649 5650 5652 5654 5655 5657 5661 5664 5666 5669 5676 5683 5689 5693 5697 5700 5704 5709 5715 5720 5725 5730 5735 5740 5747 5753 5756 5761 5764 5766 5777 5790 5796 5801 5808 5811 5812 5816 5818 5821 5825 5828 5831 5834 5836 5839 5842
5717 5715 5713 5712 5710 5708 5706 5704 5702 5700 5697 5694 5691 5688 5685 5681 5677 5674 5670 5666 5662 5658 5654 5652 5650 5649 5648 5647 5646 5645 5645 5645 5644 5643 5643 5643 5643 5643 5644 5644 5645 5647 5648 5649 5650 5652 5654 5656 5659 5660 5662 5669 5678 5682 5686 5691 5695 5697 5701 5708 5715 5720 5725 5730 5736 5742 5747 5750 5755 5760 5763 5773 5786 5792 5797 5803 5805 5807 5811 5813 5816 5820 5823 5827 5830 5832 5836 5839
5716 5714 5712 5710 5709 5707 5705 5702 5700 5698 5695 5691 5688 5685 5682 5679 5675 5671 5668 5664 5659 5655 5651 5649 5648 5648 5647 5645 5645 5644 5643 5643 5642 5642 5641 5641 5642 5642 5642 5642 5643 5644 5646 5647 5648 5649 5651 5653 5655 5656 5658 5665 5672 5675 5679 5684 5686 5688 5695 5703 5710 5715 5721 5726 5730 5735 5741 5746 5751 5755 5759 5770 5783 5788 5793 5799 5801 5803 5806 5809 5812 5816 5819 5823 5826 5829 5833 5836